Weather History for KMIW - January, 2013

Change the Weather History Date:

Sunday, January 20, 2013

  Actual Average Record
Temperature  
Mean Temperature 10 °F 19 °F  
Max Temperature 14 °F 28 °F 43 °F (2002)
Min Temperature 6 °F 10 °F -13 °F (2000)
Degree Days  
Heating Degree Days 55 46  
Month to date heating degree days 822 920  
Since 1 July heating degree days 3373 3732  
Cooling Degree Days 0 0  
Month to date cooling degree days 0 0  
Year to date cooling degree days 0 0  
Moisture  
Dew Point 4 °F    
Average Humidity 77    
Maximum Humidity 88    
Minimum Humidity 66    
Precipitation  
Precipitation T in 0.03 in 0.11 in (2012)
Month to date precipitation 0.10 0.48  
Sea Level Pressure  
Sea Level Pressure 30.36 in    
Wind  
Wind Speed 14 mph (WNW)    
Max Wind Speed 28 mph    
Max Gust Speed 35 mph    
Visibility 8 miles    
Events Snow    
T = Trace of Precipitation, MM = Missing Value Source: NWS Daily Summary

Daily Weather History Graph

Daily Weather History Graph

Search for Another Location

Airport or City:

Trip Planner

Search our weather history database for the weather conditions in past years. The results will help you decide how hot, cold, wet, or windy it might be!

Date:

Astronomy

Jan. 20, 2013 Rise Set
Actual Time 7:34 AM CST 5:11 PM CST
Civil Twilight 7:04 AM CST 5:41 PM CST
Nautical Twilight 6:29 AM CST 6:16 PM CST
Astronomical Twilight 5:56 AM CST 6:49 PM CST
Moon 12:13 PM CST (1/20) 2:06 AM CST (1/20)
Length of Visible Light 10h 37m
Length of Day
9h 36m
Waxing Gibbous, 66% of the Moon is Illuminated
Jan 20
Waxing Gibbous
Jan 26
Full
Feb 3
Last Quarter
Feb 10
New
Feb 17
First Quarter

Hourly Weather History & Observations

Time (CST) Temp. Windchill Dew Point Humidity Pressure Visibility Wind Dir Wind Speed Gust Speed Precip Events Conditions
12:53 AM 12.0 °F -7.7 °F 3.0 °F 67% 30.28 in 10.0 mi NW 24.2 mph 31.1 mph N/A   Clear
1:53 AM 10.9 °F -9.2 °F 1.9 °F 67% 30.32 in 10.0 mi NW 24.2 mph 29.9 mph N/A   Clear
2:53 AM 10.0 °F -7.6 °F 1.0 °F 67% 30.34 in 10.0 mi NW 17.3 mph - N/A   Clear
3:53 AM 9.0 °F -9.5 °F 1.0 °F 70% 30.34 in 10.0 mi NW 18.4 mph - N/A   Clear
4:53 AM 8.1 °F -9.6 °F 1.0 °F 73% 30.35 in 10.0 mi NW 16.1 mph - N/A   Clear
6:53 AM 8.1 °F -6.2 °F 1.0 °F 73% 30.35 in 10.0 mi North 10.4 mph - N/A   Overcast
7:53 AM 9.0 °F -3.2 °F -0.0 °F 67% 30.39 in 10.0 mi NNW 8.1 mph - N/A   Overcast
8:53 AM 10.0 °F -3.7 °F 1.0 °F 67% 30.42 in 10.0 mi WNW 10.4 mph - N/A   Overcast
9:53 AM 10.0 °F -4.5 °F 1.0 °F 67% 30.43 in 10.0 mi NW 11.5 mph - N/A   Overcast
10:53 AM 10.9 °F -0.8 °F 3.0 °F 70% 30.43 in 2.5 mi NW 8.1 mph - 0.00 in Snow Light Snow
11:03 AM 10.4 °F -2.4 °F 3.2 °F 73% 30.37 in 3.0 mi WNW 9.2 mph - 0.00 in Snow Light Snow
11:06 AM 10.4 °F -2.4 °F 3.2 °F 73% 30.37 in 2.0 mi NW 9.2 mph - 0.00 in Snow Light Snow
11:15 AM 10.4 °F -1.5 °F 3.2 °F 73% 30.36 in 1.8 mi NW 8.1 mph - 0.00 in Snow Light Snow
11:32 AM 10.4 °F -3.3 °F 5.0 °F 79% 30.36 in 2.0 mi WNW 10.4 mph - 0.00 in Snow Light Snow
12:15 PM 12.2 °F -2.5 °F 6.8 °F 79% 30.37 in 1.8 mi NW 12.7 mph - 0.00 in Snow Light Snow
12:29 PM 12.2 °F -1.8 °F 6.8 °F 79% 30.36 in 3.0 mi NW 11.5 mph - 0.00 in Snow Light Snow
12:50 PM 12.2 °F -3.1 °F 6.8 °F 79% 30.36 in 2.0 mi WNW 13.8 mph - 0.00 in Snow Light Snow
12:53 PM 12.0 °F -3.4 °F 6.1 °F 77% 30.42 in 2.0 mi NW 13.8 mph - 0.00 in Snow Light Snow
1:01 PM 12.2 °F -1.8 °F 6.8 °F 79% 30.35 in 2.0 mi NW 11.5 mph - 0.00 in Snow Light Snow
1:21 PM 12.2 °F -1.8 °F 6.8 °F 79% 30.34 in 3.0 mi WNW 11.5 mph - 0.00 in Snow Light Snow
1:32 PM 12.2 °F -3.7 °F 6.8 °F 79% 30.34 in 2.0 mi WNW 15.0 mph - 0.00 in Snow Light Snow
1:46 PM 12.2 °F -2.5 °F 6.8 °F 79% 30.34 in 4.0 mi NW 12.7 mph - 0.00 in Snow Light Snow
1:53 PM 12.9 °F -2.8 °F 8.1 °F 81% 30.40 in 3.0 mi WNW 15.0 mph - 0.00 in Snow Light Snow
2:26 PM 12.2 °F -4.3 °F 6.8 °F 79% 30.34 in 7.0 mi NW 16.1 mph - 0.00 in   Overcast
3:42 PM 12.2 °F -4.3 °F 6.8 °F 79% 30.33 in 10.0 mi NW 16.1 mph - N/A   Overcast
3:51 PM 12.2 °F -3.1 °F 5.0 °F 73% 30.33 in 10.0 mi NW 13.8 mph - N/A   Overcast
3:53 PM 12.0 °F -4.5 °F 5.0 °F 73% 30.40 in 10.0 mi WNW 16.1 mph - N/A   Overcast
4:01 PM 12.2 °F -3.1 °F 5.0 °F 73% 30.33 in 10.0 mi NW 13.8 mph - N/A   Overcast
4:09 PM 12.2 °F -3.1 °F 5.0 °F 73% 30.33 in 10.0 mi NW 13.8 mph - N/A   Overcast
4:25 PM 12.2 °F -3.1 °F 6.8 °F 79% 30.33 in 10.0 mi WNW 13.8 mph - N/A   Overcast
4:53 PM 12.0 °F -2.7 °F 5.0 °F 73% 30.40 in 10.0 mi WNW 12.7 mph - N/A   Overcast
5:07 PM 12.2 °F -1.0 °F 5.0 °F 73% 30.33 in 10.0 mi WNW 10.4 mph - N/A   Overcast
5:53 PM 12.0 °F -2.7 °F 5.0 °F 73% 30.39 in 10.0 mi WNW 12.7 mph - N/A   Overcast
6:53 PM 10.0 °F -1.9 °F 5.0 °F 80% 30.38 in 10.0 mi West 8.1 mph - N/A   Mostly Cloudy
7:04 PM 10.4 °F -1.5 °F 5.0 °F 79% 30.31 in 10.0 mi West 8.1 mph - N/A   Mostly Cloudy
7:33 PM 10.4 °F -2.4 °F 3.2 °F 73% 30.32 in 10.0 mi West 9.2 mph - N/A   Scattered Clouds
7:41 PM 10.4 °F -2.4 °F 3.2 °F 73% 30.32 in 10.0 mi West 9.2 mph - N/A   Mostly Cloudy
7:53 PM 10.0 °F -2.9 °F 5.0 °F 80% 30.38 in 10.0 mi West 9.2 mph - N/A   Mostly Cloudy
8:30 PM 8.6 °F -3.7 °F 3.2 °F 79% 30.30 in 10.0 mi West 8.1 mph - N/A   Partly Cloudy
8:53 PM 7.0 °F -6.6 °F 3.0 °F 84% 30.36 in 10.0 mi West 9.2 mph - N/A   Clear
9:53 PM 7.0 °F -10.4 °F 1.9 °F 80% 30.36 in 10.0 mi WNW 15.0 mph - N/A   Clear
10:53 PM 6.1 °F -9.5 °F 1.0 °F 80% 30.35 in 10.0 mi West 11.5 mph - N/A   Clear
11:53 PM 6.1 °F -12.2 °F 1.0 °F 80% 30.35 in 10.0 mi WNW 16.1 mph - N/A   Clear